User: anonymous   Login
Location: S�o Paulo
(23.5330°S, 46.6170°W)
Time: 22:50:54
(UTC-03:00)
Language:

ISS - Orbit

View from above orbital plane
View from above orbital plane
View from above satellite
View from above satellite

Ground track
Ground track

The orbit data is extracted from the following two-line orbital elements,

1 25544U 98067A   22138.71520833  .00009926  00000-0  18481-3 0  9996
2 25544  51.6428 122.5427 0004990 132.8296 227.9345 15.49503623340618
Epoch (UTC): 18 May 2022 17:09:54
Eccentricity: 0.0004990
inclination: 51.6428°
perigee height: 415 km
apogee height: 421 km
right ascension of ascending node: 122.5427°
argument of perigee: 132.8296°
revolutions per day: 15.49503623
mean anomaly at epoch: 227.9345°
orbit number at epoch: 34061

The dashed part of the orbit path shows where the satellite is in the earth's shadow,  

DLR